Home > Weather > Pointe-à-Pitre > Past weeks

Flag for Guadeloupe Past Weather in Pointe-à-Pitre, Guadeloupe — Yesterday and Last 2 Weeks

Now
77 °F

Warm.


Feels Like: 78 °F
Forecast: 77 / 86 °F
Wind: 3 mph from East

Location: Le Raizet - Guadeloupe

Current Time: May 31, 2016 at 12:12:08 AM

Latest Report: May 31, 2016 at 12:00 AM


Visibility: N/A

Pressure: 29.98 "Hg

Humidity: 94%

Dew Point: 75 °F

Location of Pointe-à-PitreLocation

Past Weather in Pointe-à-Pitre — Graph

°F

Pointe-à-Pitre Temperature Yesterday

Maximum temperature yesterday: 88 °F (at 12:00 PM)
Minimum temperature yesterday: 77 °F (at 2:00 AM)
Average temperature yesterday: 82 °F

High & Low Weather Summary for the Past Weeks

 TemperatureHumidityPressure
High88 °F (May 17, 2:00 PM)94% (May 16, 4:00 AM)30.12 "Hg (May 16, 4:00 AM)
Low73 °F (May 26, 1:30 AM)52% (May 19, 3:00 PM)29.92 "Hg (May 26, 2:00 PM)
Average81 °F75%30.02 "Hg
* Reported May 15 10:00 PM — May 30 10:30 PM, Pointe-à-Pitre, Weather by CustomWeather, © 2016

Note: Actual official high and low records may vary slightly from our data, if they occured in-between our weather recording intervals... More about our weather records

Advertising

Pointe-à-Pitre Weather History for the Previous 24 Hours

Scroll right to see more
 ConditionsComfort  
Time TempWeatherWind HumidityBarometerVisibility
10:30 PM
Mon, May 30
77 °FPassing clouds.5 mph94%30.01 "HgN/A
10:00 PM77 °FClear.5 mph94%30.01 "HgN/A
9:30 PM77 °FPassing clouds.5 mph94%30.01 "HgN/A
9:00 PM77 °FClear.6 mph94%29.98 "HgN/A
8:00 PM77 °FWarm.6 mph94%29.98 "HgN/A
7:30 PM77 °FLight rain. Partly cloudy.9 mph89%29.98 "Hg4 mi
7:00 PM81 °FWarm.7 mph79%29.95 "HgN/A
6:30 PM81 °FBroken clouds.12 mph79%29.95 "HgN/A
6:00 PM82 °FOvercast.13 mph74%29.95 "HgN/A
5:30 PM84 °FBroken clouds.10 mph70%29.95 "HgN/A
5:00 PM84 °FBroken clouds.14 mph66%29.92 "HgN/A
4:30 PM84 °FPartly sunny.15 mph66%29.92 "HgN/A
4:00 PM86 °FPartly sunny.12 mph62%29.92 "HgN/A
3:30 PM86 °FScattered clouds.14 mph62%29.92 "HgN/A
3:00 PM86 °FScattered clouds.15 mph62%29.95 "HgN/A
2:30 PM86 °FPartly sunny.16 mph62%29.95 "HgN/A
2:00 PM86 °FBroken clouds.15 mph66%29.95 "HgN/A
1:30 PM86 °FPartly sunny.15 mph62%29.95 "HgN/A
1:00 PM88 °FPartly sunny.16 mph59%29.98 "HgN/A
12:30 PM88 °FMostly cloudy.16 mph62%29.98 "HgN/A
12:00 PM88 °FPartly sunny.15 mph59%29.98 "HgN/A
11:30 AM86 °FPartly sunny.15 mph62%29.98 "HgN/A
11:00 AM86 °FPartly sunny.15 mph62%29.98 "HgN/A
10:30 AM86 °FBroken clouds.13 mph66%29.98 "HgN/A
10:00 AM84 °FBroken clouds.16 mph70%29.98 "HgN/A
9:30 AM86 °FPartly sunny.14 mph66%29.98 "HgN/A
9:00 AM84 °FBroken clouds.14 mph70%29.98 "HgN/A
8:30 AM84 °FPartly sunny.13 mph70%29.98 "HgN/A
8:00 AM82 °FMostly cloudy.9 mph79%29.98 "HgN/A
7:00 AM81 °FClear.3 mph84%29.98 "HgN/A
6:30 AM79 °FPartly sunny.5 mph89%29.98 "HgN/A
6:00 AM79 °FPartly sunny.3 mph89%29.95 "HgN/A
5:00 AM79 °FOvercast.5 mph89%29.95 "HgN/A
4:30 AM77 °FPartly cloudy.5 mph94%29.95 "HgN/A
4:00 AM77 °FClear.5 mph94%29.95 "HgN/A
3:30 AM77 °FMostly cloudy.3 mph94%29.95 "HgN/A
3:00 AM79 °FLight rain. Passing clouds.5 mph89%29.95 "HgN/A
2:30 AM79 °FPassing clouds.2 mph84%29.95 "HgN/A
2:00 AM77 °FPassing clouds.2 mph89%29.95 "HgN/A
1:30 AM79 °FClear.3 mph84%29.95 "HgN/A
1:00 AM79 °FClear.7 mph84%29.98 "HgN/A
12:30 AM79 °FClear.7 mph84%29.98 "HgN/A
12:00 AM79 °FClear.6 mph84%29.98 "HgN/A
Weather by CustomWeather, © 2016

See weather overviewHow to use our weather pages